Time,TemperatureF,DewpointF,PressureIn,WindDirection,WindDirectionDegrees,WindSpeedMPH,WindSpeedGustMPH,Humidity,HourlyPrecipIn,Conditions,Clouds,dailyrainin,SoftwareType,DateUTC
2013-06-06 00:01:00,78.6,73.7,29.59,West,270,0.0,0.0,85,0.00,,---,0.00,VWS V13.01,2013-06-06 04:01:00,
2013-06-06 00:02:00,78.6,73.7,29.59,West,270,0.0,0.0,85,0.00,,---,0.00,VWS V13.01,2013-06-06 04:02:00,
2013-06-06 00:03:00,78.6,73.7,29.59,West,270,0.0,0.0,85,0.00,,---,0.00,VWS V13.01,2013-06-06 04:03:00,
2013-06-06 00:07:00,78.6,73.7,29.59,West,270,0.0,0.0,85,0.00,,---,0.00,VWS V13.01,2013-06-06 04:07:00,
2013-06-06 00:12:00,78.6,73.7,29.59,West,270,0.0,0.0,85,0.00,,---,0.00,VWS V13.01,2013-06-06 04:12:00,
2013-06-06 00:15:00,78.6,73.7,29.59,WSW,248,0.0,0.0,85,0.00,,---,0.00,VWS V13.01,2013-06-06 04:15:00,
2013-06-06 00:20:00,78.6,73.7,29.59,West,270,0.0,0.0,85,0.00,,---,0.00,VWS V13.01,2013-06-06 04:20:00,
2013-06-06 00:25:00,78.6,74.1,29.59,WSW,248,0.0,0.0,86,0.00,,---,0.00,VWS V13.01,2013-06-06 04:25:00,
2013-06-06 00:30:00,78.6,74.1,29.58,WSW,248,0.0,0.0,86,0.00,,---,0.00,VWS V13.01,2013-06-06 04:30:00,
2013-06-06 00:35:00,78.6,74.1,29.58,West,270,0.0,0.0,86,0.00,,---,0.00,VWS V13.01,2013-06-06 04:35:00,
2013-06-06 00:40:00,78.6,74.1,29.58,West,270,0.0,0.0,86,0.00,,---,0.00,VWS V13.01,2013-06-06 04:40:00,
2013-06-06 00:45:00,78.6,74.1,29.58,WNW,292,0.0,0.0,86,0.00,,---,0.00,VWS V13.01,2013-06-06 04:45:00,
2013-06-06 00:50:00,78.6,74.1,29.58,West,270,0.0,0.0,86,0.00,,---,0.00,VWS V13.01,2013-06-06 04:50:00,
2013-06-06 00:55:00,78.4,73.9,29.57,West,270,0.0,0.0,86,0.00,,---,0.00,VWS V13.01,2013-06-06 04:55:00,
2013-06-06 01:00:00,78.4,73.9,29.56,WSW,248,0.0,0.0,86,0.00,,---,0.00,VWS V13.01,2013-06-06 05:00:00,
2013-06-06 01:05:00,78.4,73.9,29.56,WNW,292,0.0,0.0,86,0.00,,---,0.00,VWS V13.01,2013-06-06 05:05:00,
2013-06-06 01:10:00,78.4,73.9,29.56,West,270,0.0,0.0,86,0.00,,---,0.00,VWS V13.01,2013-06-06 05:10:00,
2013-06-06 01:15:00,78.2,73.7,29.56,West,270,0.0,0.0,86,0.00,,---,0.00,VWS V13.01,2013-06-06 05:15:00,
2013-06-06 01:20:00,78.4,73.9,29.56,WNW,292,0.0,0.0,86,0.00,,---,0.00,VWS V13.01,2013-06-06 05:20:00,
2013-06-06 01:25:00,78.4,73.9,29.56,West,270,0.0,0.0,86,0.00,,---,0.00,VWS V13.01,2013-06-06 05:25:00,
2013-06-06 01:30:00,78.4,73.9,29.56,WSW,248,0.0,0.0,86,0.00,,---,0.00,VWS V13.01,2013-06-06 05:30:00,
2013-06-06 01:35:00,78.2,73.7,29.56,West,270,0.0,0.0,86,0.00,,---,0.00,VWS V13.01,2013-06-06 05:35:00,
2013-06-06 01:40:00,78.2,74.0,29.56,West,270,0.0,0.0,87,0.00,,---,0.00,VWS V13.01,2013-06-06 05:40:00,
2013-06-06 01:45:00,78.0,73.8,29.56,SW,225,0.0,0.0,87,0.00,,---,0.00,VWS V13.01,2013-06-06 05:45:00,
2013-06-06 01:50:00,78.0,73.8,29.56,West,270,0.0,0.0,87,0.00,,---,0.00,VWS V13.01,2013-06-06 05:50:00,
2013-06-06 01:55:00,78.0,73.8,29.56,West,270,0.0,0.0,87,0.00,,---,0.00,VWS V13.01,2013-06-06 05:55:00,
2013-06-06 02:00:00,78.0,73.8,29.56,WNW,292,0.0,0.0,87,0.00,,---,0.00,VWS V13.01,2013-06-06 06:00:00,
2013-06-06 02:05:00,78.0,73.8,29.56,WSW,248,0.0,0.0,87,0.00,,---,0.00,VWS V13.01,2013-06-06 06:05:00,
2013-06-06 02:10:00,78.0,73.8,29.56,West,270,0.0,0.0,87,0.00,,---,0.00,VWS V13.01,2013-06-06 06:10:00,
2013-06-06 02:15:00,78.0,73.8,29.55,West,270,0.0,0.0,87,0.00,,---,0.00,VWS V13.01,2013-06-06 06:15:00,
2013-06-06 02:20:00,78.0,73.8,29.55,WSW,248,0.0,0.0,87,0.00,,---,0.00,VWS V13.01,2013-06-06 06:20:00,
2013-06-06 02:25:00,78.0,73.8,29.55,West,270,0.0,0.0,87,0.00,,---,0.00,VWS V13.01,2013-06-06 06:25:00,
2013-06-06 02:30:00,78.0,73.8,29.54,West,270,0.0,0.0,87,0.00,,---,0.00,VWS V13.01,2013-06-06 06:30:00,
2013-06-06 02:35:00,78.0,73.8,29.54,SW,225,0.0,0.0,87,0.00,,---,0.00,VWS V13.01,2013-06-06 06:35:00,
2013-06-06 02:40:00,78.0,73.8,29.54,West,270,0.0,0.0,87,0.00,,---,0.00,VWS V13.01,2013-06-06 06:40:00,
2013-06-06 02:45:00,78.0,73.8,29.54,WSW,248,0.0,0.0,87,0.00,,---,0.00,VWS V13.01,2013-06-06 06:45:00,
2013-06-06 02:50:00,78.0,73.8,29.54,West,270,0.0,0.0,87,0.00,,---,0.00,VWS V13.01,2013-06-06 06:50:00,
2013-06-06 02:55:00,77.9,73.7,29.54,WSW,248,0.0,0.0,87,0.00,,---,0.00,VWS V13.01,2013-06-06 06:55:00,
2013-06-06 03:00:00,77.9,73.7,29.53,WSW,248,0.0,0.0,87,0.00,,---,0.00,VWS V13.01,2013-06-06 07:00:00,
2013-06-06 03:05:00,77.9,73.7,29.53,West,270,0.0,0.0,87,0.00,,---,0.00,VWS V13.01,2013-06-06 07:05:00,
2013-06-06 03:10:00,77.7,73.5,29.52,West,270,0.0,0.0,87,0.00,,---,0.00,VWS V13.01,2013-06-06 07:10:00,
2013-06-06 03:15:00,77.7,73.5,29.52,WNW,292,0.0,0.0,87,0.00,,---,0.00,VWS V13.01,2013-06-06 07:15:00,
2013-06-06 03:20:00,77.7,73.5,29.52,West,270,0.0,0.0,87,0.00,,---,0.00,VWS V13.01,2013-06-06 07:20:00,
2013-06-06 03:25:00,77.5,73.3,29.52,WSW,248,0.0,0.0,87,0.00,,---,0.00,VWS V13.01,2013-06-06 07:25:00,
2013-06-06 03:30:00,77.5,73.3,29.52,West,270,0.0,0.0,87,0.00,,---,0.00,VWS V13.01,2013-06-06 07:30:00,
2013-06-06 03:35:00,77.5,73.3,29.52,WSW,248,0.0,0.0,87,0.00,,---,0.00,VWS V13.01,2013-06-06 07:35:00,
2013-06-06 03:40:00,77.5,73.3,29.52,West,270,0.0,0.0,87,0.00,,---,0.00,VWS V13.01,2013-06-06 07:40:00,
2013-06-06 03:45:00,77.5,73.3,29.51,WNW,292,0.0,0.0,87,0.00,,---,0.00,VWS V13.01,2013-06-06 07:45:00,
2013-06-06 03:50:00,77.5,73.3,29.50,WNW,292,0.0,0.0,87,0.00,,---,0.00,VWS V13.01,2013-06-06 07:50:00,
2013-06-06 03:55:00,77.5,73.3,29.51,West,270,0.0,0.0,87,0.00,,---,0.00,VWS V13.01,2013-06-06 07:55:00,
2013-06-06 04:00:00,77.5,73.3,29.50,West,270,0.0,0.0,87,0.00,,---,0.00,VWS V13.01,2013-06-06 08:00:00,
2013-06-06 04:05:00,77.5,73.3,29.50,West,270,0.0,0.0,87,0.00,,---,0.00,VWS V13.01,2013-06-06 08:05:00,
2013-06-06 04:10:00,77.5,73.3,29.50,WSW,248,0.0,0.0,87,0.00,,---,0.00,VWS V13.01,2013-06-06 08:10:00,
2013-06-06 04:15:00,77.5,73.3,29.50,WSW,248,0.0,0.0,87,0.00,,---,0.00,VWS V13.01,2013-06-06 08:15:00,
2013-06-06 04:20:00,77.5,73.3,29.50,SW,225,0.0,0.0,87,0.00,,---,0.00,VWS V13.01,2013-06-06 08:20:00,
2013-06-06 04:25:00,77.5,73.3,29.50,West,270,0.0,0.0,87,0.00,,---,0.00,VWS V13.01,2013-06-06 08:25:00,
2013-06-06 04:30:00,77.5,73.3,29.50,West,270,0.0,0.0,87,0.00,,---,0.00,VWS V13.01,2013-06-06 08:30:00,
2013-06-06 04:35:00,77.5,73.3,29.50,WSW,248,0.0,0.0,87,0.00,,---,0.00,VWS V13.01,2013-06-06 08:35:00,
2013-06-06 04:40:00,77.5,73.3,29.50,West,270,0.0,0.0,87,0.00,,---,0.00,VWS V13.01,2013-06-06 08:40:00,
2013-06-06 04:45:00,77.5,73.3,29.50,WNW,292,0.0,0.0,87,0.00,,---,0.00,VWS V13.01,2013-06-06 08:45:00,
2013-06-06 04:50:00,77.5,73.3,29.50,West,270,0.0,0.0,87,0.00,,---,0.00,VWS V13.01,2013-06-06 08:50:00,
2013-06-06 04:55:00,77.5,73.3,29.49,WNW,292,0.0,0.0,87,0.00,,---,0.00,VWS V13.01,2013-06-06 08:55:00,
2013-06-06 05:00:00,77.7,73.5,29.49,WSW,248,0.0,0.0,87,0.00,,---,0.00,VWS V13.01,2013-06-06 09:00:00,
2013-06-06 05:05:00,77.7,73.5,29.48,SW,225,0.0,0.0,87,0.00,,---,0.00,VWS V13.01,2013-06-06 09:05:00,
2013-06-06 05:10:00,77.5,73.7,29.48,SW,225,0.0,0.0,88,0.00,,---,0.00,VWS V13.01,2013-06-06 09:10:00,
2013-06-06 05:15:00,77.5,73.7,29.48,West,270,0.0,0.0,88,0.00,,---,0.00,VWS V13.01,2013-06-06 09:15:00,
2013-06-06 05:20:00,77.5,73.7,29.48,SW,225,0.0,0.0,88,0.00,,---,0.00,VWS V13.01,2013-06-06 09:20:00,
2013-06-06 05:25:00,77.3,73.5,29.48,WNW,292,1.9,1.9,88,0.02,,---,0.02,VWS V13.01,2013-06-06 09:25:00,
2013-06-06 05:30:00,77.0,73.2,29.47,WNW,292,0.0,0.0,88,0.02,,---,0.02,VWS V13.01,2013-06-06 09:30:00,
2013-06-06 05:35:00,76.8,73.0,29.47,West,270,0.0,0.0,88,0.02,,---,0.02,VWS V13.01,2013-06-06 09:35:00,
2013-06-06 05:40:00,76.8,72.6,29.48,West,270,0.0,0.0,87,0.02,,---,0.02,VWS V13.01,2013-06-06 09:40:00,
2013-06-06 05:45:00,76.8,72.6,29.48,West,270,0.0,0.0,87,0.02,,---,0.02,VWS V13.01,2013-06-06 09:45:00,
2013-06-06 05:50:00,76.8,72.6,29.48,West,270,0.0,0.0,87,0.02,,---,0.02,VWS V13.01,2013-06-06 09:50:00,
2013-06-06 05:55:00,76.8,72.6,29.48,WSW,248,0.0,0.0,87,0.02,,---,0.02,VWS V13.01,2013-06-06 09:55:00,
2013-06-06 06:00:00,77.0,72.8,29.48,West,270,0.0,0.0,87,0.02,,---,0.02,VWS V13.01,2013-06-06 10:00:00,
2013-06-06 06:05:00,77.1,72.9,29.48,West,270,0.0,0.0,87,0.02,,---,0.02,VWS V13.01,2013-06-06 10:05:00,
2013-06-06 06:10:00,77.1,72.9,29.47,SW,225,0.0,0.0,87,0.02,,---,0.02,VWS V13.01,2013-06-06 10:10:00,
2013-06-06 06:15:00,77.1,72.9,29.48,WSW,248,0.0,0.0,87,0.02,,---,0.02,VWS V13.01,2013-06-06 10:15:00,
2013-06-06 06:20:00,77.1,72.9,29.47,West,270,0.0,0.0,87,0.02,,---,0.02,VWS V13.01,2013-06-06 10:20:00,
2013-06-06 06:25:00,77.1,72.9,29.47,SW,225,2.2,2.2,87,0.00,,---,0.02,VWS V13.01,2013-06-06 10:25:00,
2013-06-06 06:30:00,77.1,72.9,29.47,West,270,0.0,0.0,87,0.00,,---,0.02,VWS V13.01,2013-06-06 10:30:00,
2013-06-06 06:35:00,77.3,73.1,29.47,WSW,248,0.0,0.0,87,0.00,,---,0.02,VWS V13.01,2013-06-06 10:35:00,
2013-06-06 06:41:00,77.3,73.1,29.46,West,270,0.0,0.0,87,0.00,,---,0.02,VWS V13.01,2013-06-06 10:41:00,
2013-06-06 06:46:00,77.3,73.5,29.46,SSW,202,1.9,1.9,88,0.02,,---,0.04,VWS V13.01,2013-06-06 10:46:00,
2013-06-06 06:52:00,77.3,73.5,29.46,WNW,292,0.0,0.0,88,0.02,,---,0.04,VWS V13.01,2013-06-06 10:52:00,
2013-06-06 06:57:00,77.3,73.5,29.46,WNW,292,0.0,0.0,88,0.02,,---,0.04,VWS V13.01,2013-06-06 10:57:00,
2013-06-06 07:02:00,77.3,73.5,29.47,WNW,292,0.0,0.0,88,0.02,,---,0.04,VWS V13.01,2013-06-06 11:02:00,
2013-06-06 07:07:00,77.3,73.5,29.47,WNW,292,0.0,0.0,88,0.02,,---,0.04,VWS V13.01,2013-06-06 11:07:00,
2013-06-06 07:12:00,77.3,73.5,29.47,WNW,292,0.0,0.0,88,0.02,,---,0.04,VWS V13.01,2013-06-06 11:12:00,
2013-06-06 07:17:00,77.3,73.5,29.47,WNW,292,0.0,0.0,88,0.02,,---,0.04,VWS V13.01,2013-06-06 11:17:00,
2013-06-06 07:22:00,77.3,73.5,29.47,WNW,292,0.0,0.0,88,0.02,,---,0.04,VWS V13.01,2013-06-06 11:22:00,
2013-06-06 07:28:00,77.3,73.5,29.47,WNW,292,0.0,0.0,88,0.02,,---,0.04,VWS V13.01,2013-06-06 11:28:00,
2013-06-06 07:33:00,77.3,73.5,29.47,WNW,292,0.0,0.0,88,0.02,,---,0.04,VWS V13.01,2013-06-06 11:33:00,
2013-06-06 07:38:00,77.3,73.5,29.47,WNW,292,0.0,0.0,88,0.02,,---,0.04,VWS V13.01,2013-06-06 11:38:00,
2013-06-06 07:43:00,77.3,73.5,29.47,WNW,292,0.0,0.0,88,0.02,,---,0.04,VWS V13.01,2013-06-06 11:43:00,
2013-06-06 07:48:00,77.3,73.5,29.47,WNW,292,0.0,0.0,88,0.02,,---,0.04,VWS V13.01,2013-06-06 11:48:00,
2013-06-06 07:53:00,77.3,73.5,29.47,WNW,292,0.0,0.0,88,0.02,,---,0.04,VWS V13.01,2013-06-06 11:53:00,
2013-06-06 07:58:00,77.3,73.5,29.47,WNW,292,0.0,0.0,88,0.02,,---,0.04,VWS V13.01,2013-06-06 11:58:00,
2013-06-06 08:03:00,77.3,73.5,29.47,WNW,292,0.0,0.0,88,0.02,,---,0.04,VWS V13.01,2013-06-06 12:03:00,
2013-06-06 08:08:00,77.3,73.5,29.47,WNW,292,0.0,0.0,88,0.02,,---,0.04,VWS V13.01,2013-06-06 12:08:00,
2013-06-06 08:13:00,77.3,73.5,29.47,WNW,292,0.0,0.0,88,0.02,,---,0.04,VWS V13.01,2013-06-06 12:13:00,
2013-06-06 08:18:00,77.3,73.5,29.47,WNW,292,0.0,0.0,88,0.02,,---,0.04,VWS V13.01,2013-06-06 12:18:00,
2013-06-06 08:23:00,75.5,71.7,29.50,WNW,292,0.0,0.0,88,0.00,,---,0.04,VWS V13.01,2013-06-06 12:23:00,
2013-06-06 08:28:00,75.5,71.7,29.50,WNW,292,0.0,0.0,88,0.00,,---,0.04,VWS V13.01,2013-06-06 12:28:00,
2013-06-06 08:33:00,75.5,71.7,29.51,WNW,292,0.0,0.0,88,0.00,,---,0.04,VWS V13.01,2013-06-06 12:33:00,
2013-06-06 08:38:00,75.9,72.1,29.51,WNW,292,0.0,0.0,88,0.00,,---,0.04,VWS V13.01,2013-06-06 12:38:00,
2013-06-06 08:43:00,75.9,72.1,29.51,SW,225,0.0,0.0,88,0.00,,---,0.04,VWS V13.01,2013-06-06 12:43:00,
2013-06-06 08:48:00,76.1,72.3,29.51,SW,225,0.0,0.0,88,0.00,,---,0.04,VWS V13.01,2013-06-06 12:48:00,
2013-06-06 08:53:00,76.6,73.1,29.51,SW,225,0.0,0.0,89,0.00,,---,0.04,VWS V13.01,2013-06-06 12:53:00,
2013-06-06 08:58:00,76.6,73.1,29.51,SW,225,0.0,0.0,89,0.00,,---,0.04,VWS V13.01,2013-06-06 12:58:00,
2013-06-06 09:03:00,76.8,73.3,29.50,SW,225,0.0,0.0,89,0.00,,---,0.04,VWS V13.01,2013-06-06 13:03:00,
2013-06-06 09:08:00,76.8,73.3,29.51,SSW,202,45.6,45.6,89,0.00,,---,0.04,VWS V13.01,2013-06-06 13:08:00,
2013-06-06 09:13:00,76.8,73.3,29.51,SSW,202,45.6,45.6,89,0.00,,---,0.04,VWS V13.01,2013-06-06 13:13:00,
2013-06-06 09:18:00,76.8,73.0,29.52,WSW,248,1.7,1.7,88,0.00,,---,0.04,VWS V13.01,2013-06-06 13:18:00,
2013-06-06 09:23:00,76.8,73.0,29.52,WSW,248,1.7,1.7,88,0.00,,---,0.04,VWS V13.01,2013-06-06 13:23:00,
2013-06-06 09:28:00,76.8,73.0,29.52,WSW,248,1.7,1.7,88,0.00,,---,0.04,VWS V13.01,2013-06-06 13:28:00,
2013-06-06 09:33:00,76.8,73.0,29.52,WSW,248,1.7,1.7,88,0.00,,---,0.04,VWS V13.01,2013-06-06 13:33:00,
2013-06-06 09:39:00,76.8,73.0,29.52,WSW,248,1.7,1.7,88,0.00,,---,0.04,VWS V13.01,2013-06-06 13:39:00,
2013-06-06 09:44:00,76.8,73.0,29.52,WSW,248,1.7,1.7,88,0.00,,---,0.04,VWS V13.01,2013-06-06 13:44:00,
2013-06-06 09:49:00,76.8,73.0,29.52,WSW,248,1.7,1.7,88,0.00,,---,0.04,VWS V13.01,2013-06-06 13:49:00,
2013-06-06 09:54:00,76.8,73.0,29.52,WSW,248,1.7,1.7,88,0.00,,---,0.04,VWS V13.01,2013-06-06 13:54:00,
2013-06-06 09:59:00,76.8,73.0,29.52,WSW,248,1.7,1.7,88,0.00,,---,0.04,VWS V13.01,2013-06-06 13:59:00,
2013-06-06 10:04:00,77.0,72.2,29.51,SSW,202,0.0,0.0,85,0.00,,---,0.04,VWS V13.01,2013-06-06 14:04:00,
2013-06-06 10:09:00,77.0,72.2,29.51,SSW,202,0.0,0.0,85,0.00,,---,0.04,VWS V13.01,2013-06-06 14:09:00,
2013-06-06 10:14:00,77.0,72.2,29.51,SSW,202,0.0,0.0,85,0.00,,---,0.04,VWS V13.01,2013-06-06 14:14:00,
2013-06-06 10:19:00,77.0,72.2,29.51,SSW,202,0.0,0.0,85,0.00,,---,0.04,VWS V13.01,2013-06-06 14:19:00,
2013-06-06 10:24:00,77.7,72.8,29.50,WSW,248,0.0,0.0,85,0.00,,---,0.04,VWS V13.01,2013-06-06 14:24:00,
2013-06-06 10:29:00,78.0,73.1,29.51,SW,225,0.0,0.0,85,0.73,,---,0.78,VWS V13.01,2013-06-06 14:29:00,
2013-06-06 10:34:00,78.0,73.1,29.51,SW,225,0.0,0.0,85,0.73,,---,0.78,VWS V13.01,2013-06-06 14:34:00,
2013-06-06 10:39:00,78.6,73.4,29.51,SW,225,0.0,0.0,84,0.73,,---,0.78,VWS V13.01,2013-06-06 14:39:00,
2013-06-06 10:44:00,78.6,73.4,29.51,SW,225,0.0,0.0,84,0.73,,---,0.78,VWS V13.01,2013-06-06 14:44:00,
2013-06-06 10:50:00,78.6,73.4,29.50,SW,225,0.0,0.0,84,0.73,,---,0.78,VWS V13.01,2013-06-06 14:50:00,
2013-06-06 10:55:00,78.6,73.4,29.50,SW,225,0.0,0.0,84,0.73,,---,0.78,VWS V13.01,2013-06-06 14:55:00,
2013-06-06 11:00:00,78.6,73.4,29.50,SW,225,0.0,0.0,84,0.73,,---,0.78,VWS V13.01,2013-06-06 15:00:00,
2013-06-06 11:05:00,78.6,73.4,29.50,SW,225,0.0,0.0,84,0.73,,---,0.78,VWS V13.01,2013-06-06 15:05:00,
2013-06-06 11:10:00,78.9,73.7,29.51,SW,225,0.0,0.0,84,0.73,,---,0.78,VWS V13.01,2013-06-06 15:10:00,
2013-06-06 11:15:00,78.9,73.7,29.51,SSW,202,0.0,0.0,84,0.73,,---,0.78,VWS V13.01,2013-06-06 15:15:00,
2013-06-06 11:20:00,78.9,73.7,29.51,SSW,202,0.0,0.0,84,0.73,,---,0.78,VWS V13.01,2013-06-06 15:20:00,
2013-06-06 11:25:00,79.1,73.8,29.51,SSW,202,0.0,0.0,84,0.73,,---,0.78,VWS V13.01,2013-06-06 15:25:00,
2013-06-06 11:30:00,79.3,74.1,29.50,SW,225,0.0,0.0,84,0.73,,---,0.78,VWS V13.01,2013-06-06 15:30:00,
2013-06-06 11:35:00,79.5,74.2,29.50,SSW,202,0.0,0.0,84,0.00,,---,0.78,VWS V13.01,2013-06-06 15:35:00,
2013-06-06 11:40:00,79.7,74.4,29.50,SSW,202,0.0,0.0,84,0.00,,---,0.78,VWS V13.01,2013-06-06 15:40:00,
2013-06-06 11:45:00,79.8,74.5,29.50,SW,225,0.0,0.0,84,0.00,,---,0.78,VWS V13.01,2013-06-06 15:45:00,
2013-06-06 11:50:00,79.8,74.5,29.50,SW,225,0.0,0.0,84,0.00,,---,0.78,VWS V13.01,2013-06-06 15:50:00,
2013-06-06 11:55:00,80.0,74.7,29.49,SW,225,0.0,0.0,84,0.00,,---,0.78,VWS V13.01,2013-06-06 15:55:00,
2013-06-06 12:00:00,80.4,75.5,29.49,SSW,202,0.0,0.0,85,0.00,,---,0.78,VWS V13.01,2013-06-06 16:00:00,
2013-06-06 12:05:00,80.9,76.0,29.48,SW,225,0.0,0.0,85,0.00,,---,0.78,VWS V13.01,2013-06-06 16:05:00,
2013-06-06 12:10:00,81.3,76.4,29.48,SSW,202,0.0,0.0,85,0.00,,---,0.78,VWS V13.01,2013-06-06 16:10:00,
2013-06-06 12:15:00,81.3,76.4,29.48,SSW,202,0.0,0.0,85,0.00,,---,0.78,VWS V13.01,2013-06-06 16:15:00,
2013-06-06 12:20:00,81.3,76.4,29.48,SSW,202,0.0,0.0,85,0.00,,---,0.78,VWS V13.01,2013-06-06 16:20:00,
2013-06-06 12:25:00,81.3,76.0,29.48,SSW,202,0.0,0.0,84,0.00,,---,0.78,VWS V13.01,2013-06-06 16:25:00,
2013-06-06 12:30:00,82.7,77.0,29.48,SSW,202,0.0,0.0,83,0.00,,---,0.78,VWS V13.01,2013-06-06 16:30:00,
2013-06-06 12:35:00,82.9,77.2,29.48,WSW,248,0.0,0.0,83,0.00,,---,0.78,VWS V13.01,2013-06-06 16:35:00,
2013-06-06 12:40:00,82.9,77.2,29.48,WSW,248,0.0,0.0,83,0.00,,---,0.78,VWS V13.01,2013-06-06 16:40:00,
2013-06-06 12:45:00,82.9,77.2,29.48,WSW,248,0.0,0.0,83,0.00,,---,0.78,VWS V13.01,2013-06-06 16:45:00,
2013-06-06 12:50:00,82.9,77.2,29.48,WSW,248,0.0,0.0,83,0.00,,---,0.78,VWS V13.01,2013-06-06 16:50:00,
2013-06-06 12:55:00,82.9,77.2,29.48,WSW,248,0.0,0.0,83,0.00,,---,0.78,VWS V13.01,2013-06-06 16:55:00,
2013-06-06 13:00:00,82.9,77.2,29.48,WSW,248,0.0,0.0,83,0.00,,---,0.78,VWS V13.01,2013-06-06 17:00:00,
2013-06-06 13:05:00,82.9,77.2,29.48,WSW,248,0.0,0.0,83,0.00,,---,0.78,VWS V13.01,2013-06-06 17:05:00,
2013-06-06 13:10:00,82.9,77.2,29.48,WSW,248,0.0,0.0,83,0.00,,---,0.78,VWS V13.01,2013-06-06 17:10:00,
2013-06-06 13:15:00,79.3,73.0,29.47,SW,225,0.0,0.0,81,0.00,,---,0.78,VWS V13.01,2013-06-06 17:15:00,
2013-06-06 13:20:00,79.3,73.0,29.47,SW,225,0.0,0.0,81,0.00,,---,0.78,VWS V13.01,2013-06-06 17:20:00,
2013-06-06 13:25:00,78.6,72.3,29.46,SW,225,0.0,0.0,81,0.00,,---,0.78,VWS V13.01,2013-06-06 17:25:00,
2013-06-06 13:30:00,78.6,72.3,29.46,SW,225,0.0,0.0,81,0.00,,---,0.78,VWS V13.01,2013-06-06 17:30:00,
2013-06-06 13:35:00,78.6,72.3,29.45,SW,225,0.0,0.0,81,0.00,,---,0.78,VWS V13.01,2013-06-06 17:35:00,
2013-06-06 13:40:00,78.6,72.3,29.45,SW,225,0.0,0.0,81,0.00,,---,0.78,VWS V13.01,2013-06-06 17:40:00,
2013-06-06 13:45:00,78.6,72.3,29.45,SW,225,0.0,0.0,81,0.00,,---,0.78,VWS V13.01,2013-06-06 17:45:00,
2013-06-06 13:50:00,78.6,72.3,29.45,SW,225,0.0,0.0,81,0.00,,---,0.78,VWS V13.01,2013-06-06 17:50:00,
2013-06-06 13:55:00,78.6,72.3,29.45,SW,225,0.0,0.0,81,0.00,,---,0.78,VWS V13.01,2013-06-06 17:55:00,
2013-06-06 14:00:00,78.6,72.3,29.45,SW,225,0.0,0.0,81,0.00,,---,0.78,VWS V13.01,2013-06-06 18:00:00,
2013-06-06 14:05:00,78.6,72.3,29.45,SW,225,0.0,0.0,81,0.00,,---,0.78,VWS V13.01,2013-06-06 18:05:00,
2013-06-06 14:10:00,78.6,72.3,29.45,SW,225,0.0,0.0,81,0.00,,---,0.78,VWS V13.01,2013-06-06 18:10:00,
2013-06-06 14:15:00,78.6,72.3,29.45,SW,225,0.0,0.0,81,0.00,,---,0.78,VWS V13.01,2013-06-06 18:15:00,
2013-06-06 14:20:00,78.6,72.3,29.45,SW,225,0.0,0.0,81,0.00,,---,0.78,VWS V13.01,2013-06-06 18:20:00,
2013-06-06 14:25:00,78.6,72.3,29.45,SW,225,0.0,0.0,81,0.00,,---,0.78,VWS V13.01,2013-06-06 18:25:00,
2013-06-06 14:30:00,78.6,72.3,29.45,SW,225,0.0,0.0,81,0.00,,---,0.78,VWS V13.01,2013-06-06 18:30:00,
2013-06-06 14:35:00,78.6,72.3,29.45,SW,225,0.0,0.0,81,0.00,,---,0.78,VWS V13.01,2013-06-06 18:35:00,
2013-06-06 14:40:00,78.6,72.3,29.45,SW,225,0.0,0.0,81,0.00,,---,0.78,VWS V13.01,2013-06-06 18:40:00,
2013-06-06 14:45:00,78.6,72.3,29.45,SW,225,0.0,0.0,81,0.00,,---,0.78,VWS V13.01,2013-06-06 18:45:00,
2013-06-06 14:50:00,78.6,72.3,29.45,SW,225,0.0,0.0,81,0.00,,---,0.78,VWS V13.01,2013-06-06 18:50:00,
2013-06-06 14:55:00,78.6,72.3,29.45,SW,225,0.0,0.0,81,0.00,,---,0.78,VWS V13.01,2013-06-06 18:55:00,
2013-06-06 15:00:00,78.6,72.3,29.45,SW,225,0.0,0.0,81,0.00,,---,0.78,VWS V13.01,2013-06-06 19:00:00,
2013-06-06 15:05:00,78.6,72.3,29.45,SW,225,0.0,0.0,81,0.00,,---,0.78,VWS V13.01,2013-06-06 19:05:00,
2013-06-06 15:10:00,78.6,72.3,29.45,SW,225,0.0,0.0,81,0.00,,---,0.78,VWS V13.01,2013-06-06 19:10:00,
2013-06-06 15:15:00,78.6,72.3,29.45,SW,225,0.0,0.0,81,0.00,,---,0.78,VWS V13.01,2013-06-06 19:15:00,
2013-06-06 15:20:00,78.6,72.3,29.45,SW,225,0.0,0.0,81,0.00,,---,0.78,VWS V13.01,2013-06-06 19:20:00,
2013-06-06 15:25:00,78.6,72.3,29.45,SW,225,0.0,0.0,81,0.00,,---,0.78,VWS V13.01,2013-06-06 19:25:00,
2013-06-06 15:30:00,78.6,72.3,29.45,SW,225,0.0,0.0,81,0.00,,---,0.78,VWS V13.01,2013-06-06 19:30:00,
2013-06-06 15:35:00,78.6,72.3,29.45,SW,225,0.0,0.0,81,0.00,,---,0.78,VWS V13.01,2013-06-06 19:35:00,
2013-06-06 15:37:00,78.6,72.3,29.45,SW,225,0.0,0.0,81,0.00,,---,0.78,VWS V13.01,2013-06-06 19:37:00,
2013-06-06 15:42:00,78.6,72.3,29.45,SW,225,0.0,0.0,81,0.00,,---,0.78,VWS V13.01,2013-06-06 19:42:00,
2013-06-06 15:48:00,78.6,72.3,29.45,SW,225,0.0,0.0,81,0.00,,---,0.78,VWS V13.01,2013-06-06 19:48:00,
2013-06-06 15:53:00,78.6,72.3,29.45,SW,225,0.0,0.0,81,0.00,,---,0.78,VWS V13.01,2013-06-06 19:53:00,
2013-06-06 15:58:00,78.6,72.3,29.45,SW,225,0.0,0.0,81,0.00,,---,0.78,VWS V13.01,2013-06-06 19:58:00,
2013-06-06 16:04:00,78.6,72.3,29.45,SW,225,0.0,0.0,81,0.00,,---,0.78,VWS V13.01,2013-06-06 20:04:00,
2013-06-06 16:09:00,78.6,72.3,29.45,SW,225,0.0,0.0,81,0.00,,---,0.78,VWS V13.01,2013-06-06 20:09:00,
2013-06-06 16:14:00,78.6,72.3,29.45,SW,225,0.0,0.0,81,0.00,,---,0.78,VWS V13.01,2013-06-06 20:14:00,
2013-06-06 16:19:00,78.6,72.3,29.45,SW,225,0.0,0.0,81,0.00,,---,0.78,VWS V13.01,2013-06-06 20:19:00,
2013-06-06 16:25:00,78.6,72.3,29.45,SW,225,0.0,0.0,81,0.00,,---,0.78,VWS V13.01,2013-06-06 20:25:00,
2013-06-06 16:30:00,78.6,72.3,29.45,SW,225,0.0,0.0,81,0.00,,---,0.78,VWS V13.01,2013-06-06 20:30:00,
2013-06-06 16:35:00,78.6,72.3,29.45,SW,225,0.0,0.0,81,0.00,,---,0.78,VWS V13.01,2013-06-06 20:35:00,
2013-06-06 16:40:00,78.6,72.3,29.45,SW,225,0.0,0.0,81,0.00,,---,0.78,VWS V13.01,2013-06-06 20:40:00,
2013-06-06 16:45:00,78.6,72.3,29.45,SW,225,0.0,0.0,81,0.00,,---,0.78,VWS V13.01,2013-06-06 20:45:00,
2013-06-06 16:50:00,78.6,72.3,29.45,SW,225,0.0,0.0,81,0.00,,---,0.78,VWS V13.01,2013-06-06 20:50:00,
2013-06-06 16:55:00,78.6,72.3,29.45,SW,225,0.0,0.0,81,0.00,,---,0.78,VWS V13.01,2013-06-06 20:55:00,
2013-06-06 17:00:00,78.6,72.3,29.45,SW,225,0.0,0.0,81,0.00,,---,0.78,VWS V13.01,2013-06-06 21:00:00,
2013-06-06 17:05:00,78.6,72.3,29.45,SW,225,0.0,0.0,81,0.00,,---,0.78,VWS V13.01,2013-06-06 21:05:00,
2013-06-06 17:10:00,78.6,72.3,29.45,SW,225,0.0,0.0,81,0.00,,---,0.78,VWS V13.01,2013-06-06 21:10:00,
2013-06-06 17:15:00,78.6,72.3,29.45,SW,225,0.0,0.0,81,0.00,,---,0.78,VWS V13.01,2013-06-06 21:15:00,
2013-06-06 17:20:00,78.6,72.3,29.45,SW,225,0.0,0.0,81,0.00,,---,0.78,VWS V13.01,2013-06-06 21:20:00,
2013-06-06 17:25:00,78.6,72.3,29.45,SW,225,0.0,0.0,81,0.00,,---,0.78,VWS V13.01,2013-06-06 21:25:00,
2013-06-06 17:30:00,78.6,72.3,29.45,SW,225,0.0,0.0,81,0.00,,---,0.78,VWS V13.01,2013-06-06 21:30:00,
2013-06-06 17:35:00,78.6,72.3,29.45,SW,225,0.0,0.0,81,0.00,,---,0.78,VWS V13.01,2013-06-06 21:35:00,
2013-06-06 17:40:00,78.6,72.3,29.45,SW,225,0.0,0.0,81,0.00,,---,0.78,VWS V13.01,2013-06-06 21:40:00,
2013-06-06 17:45:00,78.6,72.3,29.45,SW,225,0.0,0.0,81,0.00,,---,0.78,VWS V13.01,2013-06-06 21:45:00,
2013-06-06 17:50:00,78.6,72.3,29.45,SW,225,0.0,0.0,81,0.00,,---,0.78,VWS V13.01,2013-06-06 21:50:00,
2013-06-06 17:55:00,78.6,72.3,29.45,SW,225,0.0,0.0,81,0.00,,---,0.78,VWS V13.01,2013-06-06 21:55:00,
2013-06-06 18:00:00,78.6,72.3,29.45,SW,225,0.0,0.0,81,0.00,,---,0.78,VWS V13.01,2013-06-06 22:00:00,
2013-06-06 18:05:00,78.6,72.3,29.45,SW,225,0.0,0.0,81,0.00,,---,0.78,VWS V13.01,2013-06-06 22:05:00,
2013-06-06 18:10:00,78.6,72.3,29.45,SW,225,0.0,0.0,81,0.00,,---,0.78,VWS V13.01,2013-06-06 22:10:00,
2013-06-06 18:15:00,78.6,72.3,29.45,SW,225,0.0,0.0,81,0.00,,---,0.78,VWS V13.01,2013-06-06 22:15:00,
2013-06-06 18:20:00,78.6,72.3,29.45,SW,225,0.0,0.0,81,0.00,,---,0.78,VWS V13.01,2013-06-06 22:20:00,
2013-06-06 18:25:00,78.6,72.3,29.45,SW,225,0.0,0.0,81,0.00,,---,0.78,VWS V13.01,2013-06-06 22:25:00,
2013-06-06 18:30:00,78.6,72.3,29.45,SW,225,0.0,0.0,81,0.00,,---,0.78,VWS V13.01,2013-06-06 22:30:00,
2013-06-06 18:35:00,78.6,72.3,29.45,SW,225,0.0,0.0,81,0.00,,---,0.78,VWS V13.01,2013-06-06 22:35:00,
2013-06-06 18:40:00,78.6,72.3,29.45,SW,225,0.0,0.0,81,0.00,,---,0.78,VWS V13.01,2013-06-06 22:40:00,
2013-06-06 18:45:00,78.6,72.3,29.45,SW,225,0.0,0.0,81,0.00,,---,0.78,VWS V13.01,2013-06-06 22:45:00,
2013-06-06 18:50:00,78.6,72.3,29.45,SW,225,0.0,0.0,81,0.00,,---,0.78,VWS V13.01,2013-06-06 22:50:00,
2013-06-06 18:55:00,78.6,72.3,29.45,SW,225,0.0,0.0,81,0.00,,---,0.78,VWS V13.01,2013-06-06 22:55:00,
2013-06-06 19:00:00,78.6,72.3,29.45,SW,225,0.0,0.0,81,0.00,,---,0.78,VWS V13.01,2013-06-06 23:00:00,
2013-06-06 19:05:00,78.6,72.3,29.45,SW,225,0.0,0.0,81,0.00,,---,0.78,VWS V13.01,2013-06-06 23:05:00,
2013-06-06 19:10:00,78.6,72.3,29.45,SW,225,0.0,0.0,81,0.00,,---,0.78,VWS V13.01,2013-06-06 23:10:00,
2013-06-06 19:15:00,78.6,72.3,29.45,SW,225,0.0,0.0,81,0.00,,---,0.78,VWS V13.01,2013-06-06 23:15:00,
2013-06-06 19:20:00,78.6,72.3,29.45,SW,225,0.0,0.0,81,0.00,,---,0.78,VWS V13.01,2013-06-06 23:20:00,
2013-06-06 19:25:00,78.6,72.3,29.45,SW,225,0.0,0.0,81,0.00,,---,0.78,VWS V13.01,2013-06-06 23:25:00,
2013-06-06 19:30:00,78.6,72.3,29.45,SW,225,0.0,0.0,81,0.00,,---,0.78,VWS V13.01,2013-06-06 23:30:00,
2013-06-06 19:35:00,78.6,72.3,29.45,SW,225,0.0,0.0,81,0.00,,---,0.78,VWS V13.01,2013-06-06 23:35:00,
2013-06-06 19:40:00,78.6,72.3,29.45,SW,225,0.0,0.0,81,0.00,,---,0.78,VWS V13.01,2013-06-06 23:40:00,
2013-06-06 19:45:00,78.6,72.3,29.45,SW,225,0.0,0.0,81,0.00,,---,0.78,VWS V13.01,2013-06-06 23:45:00,
2013-06-06 19:50:00,78.6,72.3,29.45,SW,225,0.0,0.0,81,0.00,,---,0.78,VWS V13.01,2013-06-06 23:50:00,
2013-06-06 19:55:00,78.6,72.3,29.45,SW,225,0.0,0.0,81,0.00,,---,0.78,VWS V13.01,2013-06-06 23:55:00,
2013-06-06 20:00:00,78.6,72.3,29.45,SW,225,0.0,0.0,81,0.00,,---,0.78,VWS V13.01,2013-06-07 00:00:00,
2013-06-06 20:05:00,78.6,72.3,29.45,SW,225,0.0,0.0,81,0.00,,---,0.78,VWS V13.01,2013-06-07 00:05:00,
2013-06-06 20:10:00,78.6,72.3,29.45,SW,225,0.0,0.0,81,0.00,,---,0.78,VWS V13.01,2013-06-07 00:10:00,
2013-06-06 20:15:00,78.6,72.3,29.45,SW,225,0.0,0.0,81,0.00,,---,0.78,VWS V13.01,2013-06-07 00:15:00,
2013-06-06 20:20:00,78.6,72.3,29.45,SW,225,0.0,0.0,81,0.00,,---,0.78,VWS V13.01,2013-06-07 00:20:00,
2013-06-06 20:25:00,78.6,72.3,29.45,SW,225,0.0,0.0,81,0.00,,---,0.78,VWS V13.01,2013-06-07 00:25:00,
2013-06-06 20:30:00,78.6,72.3,29.45,SW,225,0.0,0.0,81,0.00,,---,0.78,VWS V13.01,2013-06-07 00:30:00,
2013-06-06 20:35:00,78.6,72.3,29.45,SW,225,0.0,0.0,81,0.00,,---,0.78,VWS V13.01,2013-06-07 00:35:00,
2013-06-06 20:40:00,78.6,72.3,29.45,SW,225,0.0,0.0,81,0.00,,---,0.78,VWS V13.01,2013-06-07 00:40:00,
2013-06-06 20:45:00,74.3,69.8,29.46,SSW,202,0.0,0.0,86,0.00,,---,0.78,VWS V13.01,2013-06-07 00:45:00,
2013-06-06 20:50:00,74.3,69.8,29.46,SSW,202,0.0,0.0,86,0.00,,---,0.78,VWS V13.01,2013-06-07 00:50:00,
2013-06-06 20:55:00,74.3,69.8,29.46,SSW,202,0.0,0.0,86,0.00,,---,0.78,VWS V13.01,2013-06-07 00:55:00,
2013-06-06 21:00:00,74.3,69.8,29.46,SSW,202,0.0,0.0,86,0.00,,---,0.78,VWS V13.01,2013-06-07 01:00:00,
2013-06-06 21:05:00,74.3,69.8,29.46,SSW,202,0.0,0.0,86,0.00,,---,0.78,VWS V13.01,2013-06-07 01:05:00,
2013-06-06 21:10:00,74.3,69.8,29.46,SSW,202,0.0,0.0,86,0.00,,---,0.78,VWS V13.01,2013-06-07 01:10:00,
2013-06-06 21:15:00,74.3,69.8,29.46,SSW,202,0.0,0.0,86,0.00,,---,0.78,VWS V13.01,2013-06-07 01:15:00,
2013-06-06 21:20:00,74.1,69.3,29.47,SSW,202,0.0,0.0,85,0.26,,---,1.04,VWS V13.01,2013-06-07 01:20:00,
2013-06-06 21:25:00,73.9,69.1,29.47,SSW,202,0.0,0.0,85,0.89,,---,1.67,VWS V13.01,2013-06-07 01:25:00,
2013-06-06 21:30:00,73.9,69.1,29.47,SSW,202,0.0,0.0,85,0.89,,---,1.67,VWS V13.01,2013-06-07 01:30:00,
2013-06-06 21:35:00,73.9,69.4,29.48,SSW,202,0.0,0.0,86,0.89,,---,1.67,VWS V13.01,2013-06-07 01:35:00,
2013-06-06 21:40:00,73.9,69.4,29.47,WSW,248,0.0,0.0,86,0.89,,---,1.67,VWS V13.01,2013-06-07 01:40:00,
2013-06-06 21:45:00,73.9,69.4,29.48,SSW,202,0.0,0.0,86,0.89,,---,1.67,VWS V13.01,2013-06-07 01:45:00,
2013-06-06 21:50:00,73.9,69.4,29.48,SSW,202,0.0,0.0,86,0.89,,---,1.67,VWS V13.01,2013-06-07 01:50:00,
2013-06-06 21:55:00,73.9,69.4,29.48,SSW,202,0.0,0.0,86,0.89,,---,1.67,VWS V13.01,2013-06-07 01:55:00,
2013-06-06 22:00:00,73.9,69.4,29.48,WSW,248,0.0,0.0,86,0.89,,---,1.67,VWS V13.01,2013-06-07 02:00:00,
2013-06-06 22:05:00,73.9,69.4,29.49,WSW,248,0.0,0.0,86,0.89,,---,1.67,VWS V13.01,2013-06-07 02:05:00,
2013-06-06 22:10:00,73.9,69.4,29.48,SSW,202,0.0,0.0,86,0.89,,---,1.67,VWS V13.01,2013-06-07 02:10:00,
2013-06-06 22:15:00,73.9,69.4,29.48,SW,225,0.0,0.0,86,0.63,,---,1.67,VWS V13.01,2013-06-07 02:15:00,
2013-06-06 22:20:00,73.9,69.4,29.49,WSW,248,0.0,0.0,86,0.63,,---,1.67,VWS V13.01,2013-06-07 02:20:00,
2013-06-06 22:25:00,73.9,69.4,29.48,SSW,202,0.0,0.0,86,0.00,,---,1.67,VWS V13.01,2013-06-07 02:25:00,
2013-06-06 22:30:00,73.9,69.4,29.48,SW,225,0.0,0.0,86,0.00,,---,1.67,VWS V13.01,2013-06-07 02:30:00,
2013-06-06 22:35:00,73.9,69.4,29.49,SSW,202,0.0,0.0,86,0.00,,---,1.67,VWS V13.01,2013-06-07 02:35:00,
2013-06-06 22:40:00,74.1,69.7,29.49,SSW,202,0.0,0.0,86,0.00,,---,1.67,VWS V13.01,2013-06-07 02:40:00,
2013-06-06 22:45:00,74.1,69.7,29.49,SW,225,0.0,0.0,86,0.00,,---,1.67,VWS V13.01,2013-06-07 02:45:00,
2013-06-06 22:50:00,74.1,69.7,29.49,SSW,202,0.0,0.0,86,0.00,,---,1.67,VWS V13.01,2013-06-07 02:50:00,
2013-06-06 22:55:00,74.1,69.7,29.49,SW,225,0.0,0.0,86,0.00,,---,1.67,VWS V13.01,2013-06-07 02:55:00,
2013-06-06 23:00:00,74.1,69.7,29.49,SW,225,0.0,0.0,86,0.00,,---,1.67,VWS V13.01,2013-06-07 03:00:00,
2013-06-06 23:05:00,74.1,69.7,29.49,SW,225,0.0,0.0,86,0.00,,---,1.67,VWS V13.01,2013-06-07 03:05:00,
2013-06-06 23:10:00,74.1,69.7,29.50,SSW,202,0.0,0.0,86,0.00,,---,1.67,VWS V13.01,2013-06-07 03:10:00,
2013-06-06 23:15:00,74.1,69.7,29.49,SSW,202,0.0,0.0,86,0.00,,---,1.67,VWS V13.01,2013-06-07 03:15:00,
2013-06-06 23:20:00,74.1,69.7,29.49,SW,225,0.0,0.0,86,0.00,,---,1.67,VWS V13.01,2013-06-07 03:20:00,
2013-06-06 23:25:00,74.1,69.7,29.49,SW,225,0.0,0.0,86,0.00,,---,1.67,VWS V13.01,2013-06-07 03:25:00,
2013-06-06 23:30:00,74.1,69.7,29.49,SSW,202,0.0,0.0,86,0.00,,---,1.67,VWS V13.01,2013-06-07 03:30:00,
2013-06-06 23:35:00,74.1,69.7,29.49,WSW,248,0.0,0.0,86,0.00,,---,1.67,VWS V13.01,2013-06-07 03:35:00,
2013-06-06 23:40:00,74.1,69.7,29.49,SSW,202,0.0,0.0,86,0.00,,---,1.67,VWS V13.01,2013-06-07 03:40:00,
2013-06-06 23:45:00,74.1,69.7,29.50,SSW,202,0.0,0.0,86,0.00,,---,1.67,VWS V13.01,2013-06-07 03:45:00,
2013-06-06 23:50:00,73.9,69.4,29.50,SSW,202,0.0,0.0,86,0.00,,---,1.67,VWS V13.01,2013-06-07 03:50:00,
2013-06-06 23:55:00,73.9,69.4,29.49,West,270,0.0,0.0,86,0.00,,---,1.67,VWS V13.01,2013-06-07 03:55:00,